<?xml version="1.0" encoding="UTF-8" standalone="no" ?>
<gpx xmlns="http://www.topografix.com/GPX/1/1" xmlns:xsi="http://www.w3.org/2001/XMLSchema-instance" xsi:schemaLocation="http://www.topografix.com/GPX/1/1 http://www.topografix.com/GPX/1/1/gpx.xsd" version="1.1" creator="VisuGPX - https://www.visugpx.com">
  <metadata>
    <name>mega parcours rouge</name>
  </metadata>
  <trk>
    <name><![CDATA[mega parcours rouge_4]]></name>
    <trkseg>
      <trkpt lat="47.60376" lon="6.63032">
        <ele>341.87311478391</ele>
        <time>2000-01-01T00:00:00Z</time>
      </trkpt>
      <trkpt lat="47.60376" lon="6.63032">
        <ele>341.87311478391</ele>
        <time>2000-01-01T00:00:00Z</time>
      </trkpt>
      <trkpt lat="47.6037" lon="6.63027">
        <ele>342.24951459736</ele>
        <time>2000-01-01T00:00:00Z</time>
      </trkpt>
      <trkpt lat="47.60358" lon="6.63043">
        <ele>343.13</ele>
        <time>2000-01-01T00:00:00Z</time>
      </trkpt>
      <trkpt lat="47.60331" lon="6.63078">
        <ele>344.59</ele>
        <time>2000-01-01T00:00:00Z</time>
      </trkpt>
      <trkpt lat="47.60313" lon="6.63101">
        <ele>346.38</ele>
        <time>2000-01-01T00:00:00Z</time>
      </trkpt>
      <trkpt lat="47.60295" lon="6.63124">
        <ele>348.8</ele>
        <time>2000-01-01T00:00:00Z</time>
      </trkpt>
      <trkpt lat="47.60276" lon="6.63147">
        <ele>351.55</ele>
        <time>2000-01-01T00:00:00Z</time>
      </trkpt>
      <trkpt lat="47.60251" lon="6.6318">
        <ele>354.96392697751</ele>
        <time>2000-01-01T00:00:00Z</time>
      </trkpt>
      <trkpt lat="47.6025" lon="6.63183">
        <ele>355.2</ele>
        <time>2000-01-01T00:00:00Z</time>
      </trkpt>
      <trkpt lat="47.6025" lon="6.63186">
        <ele>355.528653465</ele>
        <time>2000-01-01T00:00:00Z</time>
      </trkpt>
      <trkpt lat="47.60242" lon="6.63195">
        <ele>357.31868686674</ele>
        <time>2000-01-01T00:00:00Z</time>
      </trkpt>
      <trkpt lat="47.60235" lon="6.6321">
        <ele>359.47</ele>
        <time>2000-01-01T00:00:00Z</time>
      </trkpt>
      <trkpt lat="47.6023" lon="6.63222">
        <ele>360.50250066966</ele>
        <time>2000-01-01T00:00:00Z</time>
      </trkpt>
      <trkpt lat="47.60227" lon="6.63225">
        <ele>360.88619068675</ele>
        <time>2000-01-01T00:00:00Z</time>
      </trkpt>
      <trkpt lat="47.60227" lon="6.63231">
        <ele>361.31520125412</ele>
        <time>2000-01-01T00:00:00Z</time>
      </trkpt>
      <trkpt lat="47.60223" lon="6.63239">
        <ele>362.01</ele>
        <time>2000-01-01T00:00:00Z</time>
      </trkpt>
      <trkpt lat="47.60221" lon="6.63243">
        <ele>362.09624188489</ele>
        <time>2000-01-01T00:00:00Z</time>
      </trkpt>
      <trkpt lat="47.60219" lon="6.63249">
        <ele>362.20677811292</ele>
        <time>2000-01-01T00:00:00Z</time>
      </trkpt>
      <trkpt lat="47.6021" lon="6.6327">
        <ele>362.61771683684</ele>
        <time>2000-01-01T00:00:00Z</time>
      </trkpt>
      <trkpt lat="47.60206" lon="6.63285">
        <ele>362.89</ele>
        <time>2000-01-01T00:00:00Z</time>
      </trkpt>
      <trkpt lat="47.60198" lon="6.63315">
        <ele>363.00226494994</ele>
        <time>2000-01-01T00:00:00Z</time>
      </trkpt>
      <trkpt lat="47.60198" lon="6.63322">
        <ele>363.02689659872</ele>
        <time>2000-01-01T00:00:00Z</time>
      </trkpt>
      <trkpt lat="47.60192" lon="6.63353">
        <ele>363.14</ele>
        <time>2000-01-01T00:00:00Z</time>
      </trkpt>
      <trkpt lat="47.60191" lon="6.63358">
        <ele>363.12351250702</ele>
        <time>2000-01-01T00:00:00Z</time>
      </trkpt>
      <trkpt lat="47.60191" lon="6.63376">
        <ele>363.06777453006</ele>
        <time>2000-01-01T00:00:00Z</time>
      </trkpt>
      <trkpt lat="47.60189" lon="6.63388">
        <ele>363.03</ele>
        <time>2000-01-01T00:00:00Z</time>
      </trkpt>
      <trkpt lat="47.60181" lon="6.63427">
        <ele>363.09449758727</ele>
        <time>2000-01-01T00:00:00Z</time>
      </trkpt>
      <trkpt lat="47.60172" lon="6.63441">
        <ele>363.12499076355</ele>
        <time>2000-01-01T00:00:00Z</time>
      </trkpt>
      <trkpt lat="47.60168" lon="6.63443">
        <ele>363.13485974173</ele>
        <time>2000-01-01T00:00:00Z</time>
      </trkpt>
      <trkpt lat="47.60157" lon="6.63457">
        <ele>363.17</ele>
        <time>2000-01-01T00:00:00Z</time>
      </trkpt>
      <trkpt lat="47.60145" lon="6.63472">
        <ele>363.95473707719</ele>
        <time>2000-01-01T00:00:00Z</time>
      </trkpt>
      <trkpt lat="47.60139" lon="6.63477">
        <ele>364.31102769871</ele>
        <time>2000-01-01T00:00:00Z</time>
      </trkpt>
      <trkpt lat="47.60139" lon="6.6348">
        <ele>364.41</ele>
        <time>2000-01-01T00:00:00Z</time>
      </trkpt>
      <trkpt lat="47.60139" lon="6.63486">
        <ele>364.31455267715</ele>
        <time>2000-01-01T00:00:00Z</time>
      </trkpt>
      <trkpt lat="47.60137" lon="6.63511">
        <ele>363.92476468114</ele>
        <time>2000-01-01T00:00:00Z</time>
      </trkpt>
      <trkpt lat="47.60139" lon="6.63514">
        <ele>363.86</ele>
        <time>2000-01-01T00:00:00Z</time>
      </trkpt>
      <trkpt lat="47.60142" lon="6.6352">
        <ele>363.61158526052</ele>
        <time>2000-01-01T00:00:00Z</time>
      </trkpt>
      <trkpt lat="47.60145" lon="6.6352">
        <ele>363.46379342889</ele>
        <time>2000-01-01T00:00:00Z</time>
      </trkpt>
      <trkpt lat="47.6017" lon="6.63539">
        <ele>362.09</ele>
        <time>2000-01-01T00:00:00Z</time>
      </trkpt>
      <trkpt lat="47.60181" lon="6.63547">
        <ele>362.08306675336</ele>
        <time>2000-01-01T00:00:00Z</time>
      </trkpt>
      <trkpt lat="47.60181" lon="6.63551">
        <ele>362.08156539084</ele>
        <time>2000-01-01T00:00:00Z</time>
      </trkpt>
      <trkpt lat="47.60183" lon="6.6359">
        <ele>362.06688483395</ele>
        <time>2000-01-01T00:00:00Z</time>
      </trkpt>
      <trkpt lat="47.60184" lon="6.63596">
        <ele>362.06456501481</ele>
        <time>2000-01-01T00:00:00Z</time>
      </trkpt>
      <trkpt lat="47.60186" lon="6.63635">
        <ele>362.05</ele>
        <time>2000-01-01T00:00:00Z</time>
      </trkpt>
      <trkpt lat="47.60186" lon="6.63644">
        <ele>362.37242605019</ele>
        <time>2000-01-01T00:00:00Z</time>
      </trkpt>
      <trkpt lat="47.60191" lon="6.63687">
        <ele>363.9</ele>
        <time>2000-01-01T00:00:00Z</time>
      </trkpt>
      <trkpt lat="47.60191" lon="6.63689">
        <ele>363.98694380919</ele>
        <time>2000-01-01T00:00:00Z</time>
      </trkpt>
      <trkpt lat="47.60191" lon="6.63723">
        <ele>365.82</ele>
        <time>2000-01-01T00:00:00Z</time>
      </trkpt>
      <trkpt lat="47.60191" lon="6.63738">
        <ele>365.88794518578</ele>
        <time>2000-01-01T00:00:00Z</time>
      </trkpt>
      <trkpt lat="47.60194" lon="6.63758">
        <ele>365.98</ele>
        <time>2000-01-01T00:00:00Z</time>
      </trkpt>
      <trkpt lat="47.60198" lon="6.63788">
        <ele>364.936737683</ele>
        <time>2000-01-01T00:00:00Z</time>
      </trkpt>
      <trkpt lat="47.60198" lon="6.63793">
        <ele>364.77</ele>
        <time>2000-01-01T00:00:00Z</time>
      </trkpt>
      <trkpt lat="47.60198" lon="6.6384">
        <ele>363.79631954884</ele>
        <time>2000-01-01T00:00:00Z</time>
      </trkpt>
      <trkpt lat="47.60191" lon="6.63855">
        <ele>363.41924579971</ele>
        <time>2000-01-01T00:00:00Z</time>
      </trkpt>
      <trkpt lat="47.60184" lon="6.63862">
        <ele>363.16043063979</ele>
        <time>2000-01-01T00:00:00Z</time>
      </trkpt>
      <trkpt lat="47.60183" lon="6.63865">
        <ele>363.09125538845</ele>
        <time>2000-01-01T00:00:00Z</time>
      </trkpt>
      <trkpt lat="47.60177" lon="6.63903">
        <ele>362.28452612181</ele>
        <time>2000-01-01T00:00:00Z</time>
      </trkpt>
      <trkpt lat="47.60177" lon="6.63907">
        <ele>362.2</ele>
        <time>2000-01-01T00:00:00Z</time>
      </trkpt>
      <trkpt lat="47.60177" lon="6.63943">
        <ele>359.98</ele>
        <time>2000-01-01T00:00:00Z</time>
      </trkpt>
      <trkpt lat="47.60177" lon="6.63955">
        <ele>359.65453156598</ele>
        <time>2000-01-01T00:00:00Z</time>
      </trkpt>
      <trkpt lat="47.60183" lon="6.63973">
        <ele>359.12696905428</ele>
        <time>2000-01-01T00:00:00Z</time>
      </trkpt>
      <trkpt lat="47.60183" lon="6.63979">
        <ele>358.9693260501</ele>
        <time>2000-01-01T00:00:00Z</time>
      </trkpt>
      <trkpt lat="47.60187" lon="6.63993">
        <ele>358.58</ele>
        <time>2000-01-01T00:00:00Z</time>
      </trkpt>
      <trkpt lat="47.60191" lon="6.64011">
        <ele>358.61261630291</ele>
        <time>2000-01-01T00:00:00Z</time>
      </trkpt>
      <trkpt lat="47.60191" lon="6.64027">
        <ele>358.64</ele>
        <time>2000-01-01T00:00:00Z</time>
      </trkpt>
      <trkpt lat="47.60191" lon="6.64063">
        <ele>360.52</ele>
        <time>2000-01-01T00:00:00Z</time>
      </trkpt>
      <trkpt lat="47.60191" lon="6.64074">
        <ele>361.25246896832</ele>
        <time>2000-01-01T00:00:00Z</time>
      </trkpt>
      <trkpt lat="47.60193" lon="6.64098">
        <ele>362.83</ele>
        <time>2000-01-01T00:00:00Z</time>
      </trkpt>
      <trkpt lat="47.60198" lon="6.64146">
        <ele>365.24128948042</ele>
        <time>2000-01-01T00:00:00Z</time>
      </trkpt>
      <trkpt lat="47.60198" lon="6.64151">
        <ele>365.48</ele>
        <time>2000-01-01T00:00:00Z</time>
      </trkpt>
      <trkpt lat="47.602" lon="6.64182">
        <ele>368.47788560066</ele>
        <time>2000-01-01T00:00:00Z</time>
      </trkpt>
      <trkpt lat="47.60201" lon="6.64186">
        <ele>368.88</ele>
        <time>2000-01-01T00:00:00Z</time>
      </trkpt>
      <trkpt lat="47.60206" lon="6.64211">
        <ele>371.28560925467</ele>
        <time>2000-01-01T00:00:00Z</time>
      </trkpt>
      <trkpt lat="47.60206" lon="6.6422">
        <ele>372.15</ele>
        <time>2000-01-01T00:00:00Z</time>
      </trkpt>
      <trkpt lat="47.60206" lon="6.64225">
        <ele>372.45624799668</ele>
        <time>2000-01-01T00:00:00Z</time>
      </trkpt>
      <trkpt lat="47.6021" lon="6.64241">
        <ele>373.5899173165</ele>
        <time>2000-01-01T00:00:00Z</time>
      </trkpt>
      <trkpt lat="47.60212" lon="6.64255">
        <ele>374.51</ele>
        <time>2000-01-01T00:00:00Z</time>
      </trkpt>
      <trkpt lat="47.60212" lon="6.64259">
        <ele>374.70128398229</ele>
        <time>2000-01-01T00:00:00Z</time>
      </trkpt>
      <trkpt lat="47.60216" lon="6.64275">
        <ele>375.44425295688</ele>
        <time>2000-01-01T00:00:00Z</time>
      </trkpt>
      <trkpt lat="47.60219" lon="6.64295">
        <ele>376.33632410127</ele>
        <time>2000-01-01T00:00:00Z</time>
      </trkpt>
      <trkpt lat="47.60222" lon="6.64306">
        <ele>376.83</ele>
        <time>2000-01-01T00:00:00Z</time>
      </trkpt>
      <trkpt lat="47.6023" lon="6.64339">
        <ele>379.4</ele>
        <time>2000-01-01T00:00:00Z</time>
      </trkpt>
      <trkpt lat="47.60235" lon="6.64362">
        <ele>379.94534328986</ele>
        <time>2000-01-01T00:00:00Z</time>
      </trkpt>
      <trkpt lat="47.60235" lon="6.64373">
        <ele>380.2</ele>
        <time>2000-01-01T00:00:00Z</time>
      </trkpt>
      <trkpt lat="47.60235" lon="6.64396">
        <ele>380.10418182425</ele>
        <time>2000-01-01T00:00:00Z</time>
      </trkpt>
      <trkpt lat="47.60229" lon="6.64405">
        <ele>380.05</ele>
        <time>2000-01-01T00:00:00Z</time>
      </trkpt>
      <trkpt lat="47.60225" lon="6.64412">
        <ele>379.97007606787</ele>
        <time>2000-01-01T00:00:00Z</time>
      </trkpt>
      <trkpt lat="47.60212" lon="6.64428">
        <ele>379.74720530444</ele>
        <time>2000-01-01T00:00:00Z</time>
      </trkpt>
      <trkpt lat="47.60209" lon="6.64428">
        <ele>379.70762715292</ele>
        <time>2000-01-01T00:00:00Z</time>
      </trkpt>
      <trkpt lat="47.60204" lon="6.64435">
        <ele>379.6169155962</ele>
        <time>2000-01-01T00:00:00Z</time>
      </trkpt>
      <trkpt lat="47.60198" lon="6.64439">
        <ele>379.53012959438</ele>
        <time>2000-01-01T00:00:00Z</time>
      </trkpt>
      <trkpt lat="47.60198" lon="6.64469">
        <ele>379.26</ele>
        <time>2000-01-01T00:00:00Z</time>
      </trkpt>
      <trkpt lat="47.60198" lon="6.64493">
        <ele>378.74107838509</ele>
        <time>2000-01-01T00:00:00Z</time>
      </trkpt>
      <trkpt lat="47.60203" lon="6.64503">
        <ele>378.48</ele>
        <time>2000-01-01T00:00:00Z</time>
      </trkpt>
      <trkpt lat="47.60203" lon="6.64504">
        <ele>378.47018873726</ele>
        <time>2000-01-01T00:00:00Z</time>
      </trkpt>
      <trkpt lat="47.60212" lon="6.64516">
        <ele>378.3421879173</ele>
        <time>2000-01-01T00:00:00Z</time>
      </trkpt>
      <trkpt lat="47.60213" lon="6.64522">
        <ele>378.29811158399</ele>
        <time>2000-01-01T00:00:00Z</time>
      </trkpt>
      <trkpt lat="47.60218" lon="6.64527">
        <ele>378.23433104168</ele>
        <time>2000-01-01T00:00:00Z</time>
      </trkpt>
      <trkpt lat="47.60222" lon="6.64536">
        <ele>378.15745968703</ele>
        <time>2000-01-01T00:00:00Z</time>
      </trkpt>
      <trkpt lat="47.60225" lon="6.64543">
        <ele>378.1</ele>
        <time>2000-01-01T00:00:00Z</time>
      </trkpt>
      <trkpt lat="47.60232" lon="6.64563">
        <ele>378.01675354687</ele>
        <time>2000-01-01T00:00:00Z</time>
      </trkpt>
      <trkpt lat="47.60234" lon="6.64575">
        <ele>377.97</ele>
        <time>2000-01-01T00:00:00Z</time>
      </trkpt>
      <trkpt lat="47.60235" lon="6.64579">
        <ele>377.98078515726</ele>
        <time>2000-01-01T00:00:00Z</time>
      </trkpt>
      <trkpt lat="47.60236" lon="6.64626">
        <ele>378.11315720394</ele>
        <time>2000-01-01T00:00:00Z</time>
      </trkpt>
      <trkpt lat="47.60239" lon="6.64646">
        <ele>378.17</ele>
        <time>2000-01-01T00:00:00Z</time>
      </trkpt>
      <trkpt lat="47.60241" lon="6.64658">
        <ele>378.13030358868</ele>
        <time>2000-01-01T00:00:00Z</time>
      </trkpt>
      <trkpt lat="47.60241" lon="6.6468">
        <ele>378.06129532439</ele>
        <time>2000-01-01T00:00:00Z</time>
      </trkpt>
      <trkpt lat="47.60235" lon="6.6468">
        <ele>378.03338306563</ele>
        <time>2000-01-01T00:00:00Z</time>
      </trkpt>
      <trkpt lat="47.60233" lon="6.64682">
        <ele>378.02216153901</ele>
        <time>2000-01-01T00:00:00Z</time>
      </trkpt>
      <trkpt lat="47.60219" lon="6.64689">
        <ele>377.95343123036</ele>
        <time>2000-01-01T00:00:00Z</time>
      </trkpt>
      <trkpt lat="47.60212" lon="6.64691">
        <ele>377.92026813832</ele>
        <time>2000-01-01T00:00:00Z</time>
      </trkpt>
      <trkpt lat="47.60209" lon="6.64705">
        <ele>377.87418922589</ele>
        <time>2000-01-01T00:00:00Z</time>
      </trkpt>
      <trkpt lat="47.60209" lon="6.64734">
        <ele>377.78322323017</ele>
        <time>2000-01-01T00:00:00Z</time>
      </trkpt>
      <trkpt lat="47.60213" lon="6.64745">
        <ele>377.88332423529</ele>
        <time>2000-01-01T00:00:00Z</time>
      </trkpt>
      <trkpt lat="47.60219" lon="6.64752">
        <ele>377.98531203172</ele>
        <time>2000-01-01T00:00:00Z</time>
      </trkpt>
      <trkpt lat="47.60224" lon="6.64757">
        <ele>378.06587689839</ele>
        <time>2000-01-01T00:00:00Z</time>
      </trkpt>
      <trkpt lat="47.60227" lon="6.64757">
        <ele>378.1</ele>
        <time>2000-01-01T00:00:00Z</time>
      </trkpt>
      <trkpt lat="47.60229" lon="6.64757">
        <ele>378.17964644925</ele>
        <time>2000-01-01T00:00:00Z</time>
      </trkpt>
      <trkpt lat="47.60238" lon="6.64768">
        <ele>378.55942470456</ele>
        <time>2000-01-01T00:00:00Z</time>
      </trkpt>
      <trkpt lat="47.60242" lon="6.64768">
        <ele>378.68968191208</ele>
        <time>2000-01-01T00:00:00Z</time>
      </trkpt>
      <trkpt lat="47.60244" lon="6.64773">
        <ele>378.81733246697</ele>
        <time>2000-01-01T00:00:00Z</time>
      </trkpt>
      <trkpt lat="47.60248" lon="6.64775">
        <ele>378.95479303063</ele>
        <time>2000-01-01T00:00:00Z</time>
      </trkpt>
      <trkpt lat="47.60255" lon="6.64786">
        <ele>379.27</ele>
        <time>2000-01-01T00:00:00Z</time>
      </trkpt>
      <trkpt lat="47.60265" lon="6.64802">
        <ele>380.07110153345</ele>
        <time>2000-01-01T00:00:00Z</time>
      </trkpt>
      <trkpt lat="47.60265" lon="6.64809">
        <ele>380.31938537326</ele>
        <time>2000-01-01T00:00:00Z</time>
      </trkpt>
      <trkpt lat="47.60267" lon="6.64814">
        <ele>380.53</ele>
        <time>2000-01-01T00:00:00Z</time>
      </trkpt>
      <trkpt lat="47.6027" lon="6.64822">
        <ele>380.88834718574</ele>
        <time>2000-01-01T00:00:00Z</time>
      </trkpt>
      <trkpt lat="47.60275" lon="6.64848">
        <ele>381.94</ele>
        <time>2000-01-01T00:00:00Z</time>
      </trkpt>
      <trkpt lat="47.60279" lon="6.64872">
        <ele>382.54429854684</ele>
        <time>2000-01-01T00:00:00Z</time>
      </trkpt>
      <trkpt lat="47.60279" lon="6.64881">
        <ele>382.75964619894</ele>
        <time>2000-01-01T00:00:00Z</time>
      </trkpt>
      <trkpt lat="47.60286" lon="6.6493">
        <ele>383.64204044477</ele>
        <time>2000-01-01T00:00:00Z</time>
      </trkpt>
      <trkpt lat="47.60286" lon="6.64935">
        <ele>383.72</ele>
        <time>2000-01-01T00:00:00Z</time>
      </trkpt>
      <trkpt lat="47.60291" lon="6.65005">
        <ele>385.04</ele>
        <time>2000-01-01T00:00:00Z</time>
      </trkpt>
      <trkpt lat="47.60293" lon="6.65041">
        <ele>386.3</ele>
        <time>2000-01-01T00:00:00Z</time>
      </trkpt>
      <trkpt lat="47.60297" lon="6.65094">
        <ele>388.43</ele>
        <time>2000-01-01T00:00:00Z</time>
      </trkpt>
      <trkpt lat="47.60299" lon="6.65129">
        <ele>390.63</ele>
        <time>2000-01-01T00:00:00Z</time>
      </trkpt>
      <trkpt lat="47.60301" lon="6.65162">
        <ele>391.2938510476</ele>
        <time>2000-01-01T00:00:00Z</time>
      </trkpt>
      <trkpt lat="47.60302" lon="6.65164">
        <ele>391.34</ele>
        <time>2000-01-01T00:00:00Z</time>
      </trkpt>
      <trkpt lat="47.60308" lon="6.65196">
        <ele>391.44480073002</ele>
        <time>2000-01-01T00:00:00Z</time>
      </trkpt>
      <trkpt lat="47.60309" lon="6.65216">
        <ele>391.50802955215</ele>
        <time>2000-01-01T00:00:00Z</time>
      </trkpt>
      <trkpt lat="47.60309" lon="6.65252">
        <ele>391.62</ele>
        <time>2000-01-01T00:00:00Z</time>
      </trkpt>
      <trkpt lat="47.60309" lon="6.65287">
        <ele>392.56</ele>
        <time>2000-01-01T00:00:00Z</time>
      </trkpt>
      <trkpt lat="47.60309" lon="6.65323">
        <ele>393.17</ele>
        <time>2000-01-01T00:00:00Z</time>
      </trkpt>
      <trkpt lat="47.60309" lon="6.65347">
        <ele>393.40388440722</ele>
        <time>2000-01-01T00:00:00Z</time>
      </trkpt>
      <trkpt lat="47.60306" lon="6.65354">
        <ele>393.48326929189</ele>
        <time>2000-01-01T00:00:00Z</time>
      </trkpt>
      <trkpt lat="47.60305" lon="6.65357">
        <ele>393.51</ele>
        <time>2000-01-01T00:00:00Z</time>
      </trkpt>
      <trkpt lat="47.60295" lon="6.65408">
        <ele>393.78</ele>
        <time>2000-01-01T00:00:00Z</time>
      </trkpt>
      <trkpt lat="47.60292" lon="6.65421">
        <ele>394.14424194706</ele>
        <time>2000-01-01T00:00:00Z</time>
      </trkpt>
      <trkpt lat="47.60286" lon="6.65435">
        <ele>394.57385534621</ele>
        <time>2000-01-01T00:00:00Z</time>
      </trkpt>
      <trkpt lat="47.60285" lon="6.6544">
        <ele>394.7</ele>
        <time>2000-01-01T00:00:00Z</time>
      </trkpt>
      <trkpt lat="47.60279" lon="6.65466">
        <ele>396.41514502672</ele>
        <time>2000-01-01T00:00:00Z</time>
      </trkpt>
      <trkpt lat="47.60276" lon="6.65473">
        <ele>396.89</ele>
        <time>2000-01-01T00:00:00Z</time>
      </trkpt>
      <trkpt lat="47.60273" lon="6.6548">
        <ele>397.10112082504</ele>
        <time>2000-01-01T00:00:00Z</time>
      </trkpt>
      <trkpt lat="47.60257" lon="6.65536">
        <ele>398.54612638007</ele>
        <time>2000-01-01T00:00:00Z</time>
      </trkpt>
      <trkpt lat="47.60252" lon="6.65553">
        <ele>399</ele>
        <time>2000-01-01T00:00:00Z</time>
      </trkpt>
      <trkpt lat="47.60247" lon="6.65568">
        <ele>399.68262592175</ele>
        <time>2000-01-01T00:00:00Z</time>
      </trkpt>
      <trkpt lat="47.6024" lon="6.65585">
        <ele>400.5</ele>
        <time>2000-01-01T00:00:00Z</time>
      </trkpt>
      <trkpt lat="47.60235" lon="6.65597">
        <ele>401.34646275813</ele>
        <time>2000-01-01T00:00:00Z</time>
      </trkpt>
      <trkpt lat="47.60226" lon="6.65613">
        <ele>402.55</ele>
        <time>2000-01-01T00:00:00Z</time>
      </trkpt>
      <trkpt lat="47.60215" lon="6.65635">
        <ele>403.46877061341</ele>
        <time>2000-01-01T00:00:00Z</time>
      </trkpt>
      <trkpt lat="47.60212" lon="6.65644">
        <ele>403.806032055</ele>
        <time>2000-01-01T00:00:00Z</time>
      </trkpt>
      <trkpt lat="47.60204" lon="6.65655">
        <ele>404.34</ele>
        <time>2000-01-01T00:00:00Z</time>
      </trkpt>
      <trkpt lat="47.60203" lon="6.65656">
        <ele>404.43711613427</ele>
        <time>2000-01-01T00:00:00Z</time>
      </trkpt>
      <trkpt lat="47.60189" lon="6.65682">
        <ele>406.02</ele>
        <time>2000-01-01T00:00:00Z</time>
      </trkpt>
      <trkpt lat="47.60187" lon="6.65685">
        <ele>406.07293686697</ele>
        <time>2000-01-01T00:00:00Z</time>
      </trkpt>
      <trkpt lat="47.60184" lon="6.65687">
        <ele>406.13747712199</ele>
        <time>2000-01-01T00:00:00Z</time>
      </trkpt>
      <trkpt lat="47.60183" lon="6.65694">
        <ele>406.23214819286</ele>
        <time>2000-01-01T00:00:00Z</time>
      </trkpt>
      <trkpt lat="47.60175" lon="6.65701">
        <ele>406.41440971996</ele>
        <time>2000-01-01T00:00:00Z</time>
      </trkpt>
      <trkpt lat="47.60174" lon="6.65708">
        <ele>406.50908094671</ele>
        <time>2000-01-01T00:00:00Z</time>
      </trkpt>
      <trkpt lat="47.60169" lon="6.65712">
        <ele>406.62055519076</ele>
        <time>2000-01-01T00:00:00Z</time>
      </trkpt>
      <trkpt lat="47.60168" lon="6.65719">
        <ele>406.71522652142</ele>
        <time>2000-01-01T00:00:00Z</time>
      </trkpt>
      <trkpt lat="47.60163" lon="6.65721">
        <ele>406.81684278898</ele>
        <time>2000-01-01T00:00:00Z</time>
      </trkpt>
      <trkpt lat="47.60158" lon="6.65729">
        <ele>406.96</ele>
        <time>2000-01-01T00:00:00Z</time>
      </trkpt>
      <trkpt lat="47.60146" lon="6.6575">
        <ele>407.24495880159</ele>
        <time>2000-01-01T00:00:00Z</time>
      </trkpt>
      <trkpt lat="47.6014" lon="6.65755">
        <ele>407.35031355044</ele>
        <time>2000-01-01T00:00:00Z</time>
      </trkpt>
      <trkpt lat="47.60132" lon="6.65765">
        <ele>407.51</ele>
        <time>2000-01-01T00:00:00Z</time>
      </trkpt>
      <trkpt lat="47.60131" lon="6.65766">
        <ele>407.51308342337</ele>
        <time>2000-01-01T00:00:00Z</time>
      </trkpt>
      <trkpt lat="47.60127" lon="6.65777">
        <ele>407.53419255928</ele>
        <time>2000-01-01T00:00:00Z</time>
      </trkpt>
      <trkpt lat="47.60127" lon="6.65798">
        <ele>407.57</ele>
        <time>2000-01-01T00:00:00Z</time>
      </trkpt>
      <trkpt lat="47.60127" lon="6.65834">
        <ele>407.15</ele>
        <time>2000-01-01T00:00:00Z</time>
      </trkpt>
      <trkpt lat="47.60127" lon="6.65843">
        <ele>407.24088528625</ele>
        <time>2000-01-01T00:00:00Z</time>
      </trkpt>
      <trkpt lat="47.60131" lon="6.65861">
        <ele>407.4265516128</ele>
        <time>2000-01-01T00:00:00Z</time>
      </trkpt>
      <trkpt lat="47.60137" lon="6.65877">
        <ele>407.60590476686</ele>
        <time>2000-01-01T00:00:00Z</time>
      </trkpt>
      <trkpt lat="47.60142" lon="6.65906">
        <ele>407.89914272922</ele>
        <time>2000-01-01T00:00:00Z</time>
      </trkpt>
      <trkpt lat="47.60142" lon="6.65919">
        <ele>408.02</ele>
        <time>2000-01-01T00:00:00Z</time>
      </trkpt>
      <trkpt lat="47.60146" lon="6.66025">
        <ele>410.73</ele>
        <time>2000-01-01T00:00:00Z</time>
      </trkpt>
      <trkpt lat="47.60148" lon="6.66078">
        <ele>414.05</ele>
        <time>2000-01-01T00:00:00Z</time>
      </trkpt>
      <trkpt lat="47.60149" lon="6.66114">
        <ele>417.62</ele>
        <time>2000-01-01T00:00:00Z</time>
      </trkpt>
      <trkpt lat="47.6015" lon="6.66149">
        <ele>421.66</ele>
        <time>2000-01-01T00:00:00Z</time>
      </trkpt>
      <trkpt lat="47.60151" lon="6.66185">
        <ele>425.67</ele>
        <time>2000-01-01T00:00:00Z</time>
      </trkpt>
      <trkpt lat="47.60153" lon="6.66238">
        <ele>429.37</ele>
        <time>2000-01-01T00:00:00Z</time>
      </trkpt>
      <trkpt lat="47.60154" lon="6.66273">
        <ele>433</ele>
        <time>2000-01-01T00:00:00Z</time>
      </trkpt>
      <trkpt lat="47.60156" lon="6.66309">
        <ele>436.86</ele>
        <time>2000-01-01T00:00:00Z</time>
      </trkpt>
      <trkpt lat="47.60157" lon="6.66344">
        <ele>441.04</ele>
        <time>2000-01-01T00:00:00Z</time>
      </trkpt>
      <trkpt lat="47.60157" lon="6.66354">
        <ele>441.59953736639</ele>
        <time>2000-01-01T00:00:00Z</time>
      </trkpt>
      <trkpt lat="47.60159" lon="6.66397">
        <ele>444.04</ele>
        <time>2000-01-01T00:00:00Z</time>
      </trkpt>
      <trkpt lat="47.60159" lon="6.664">
        <ele>444.26365355331</ele>
        <time>2000-01-01T00:00:00Z</time>
      </trkpt>
      <trkpt lat="47.60155" lon="6.66432">
        <ele>446.93</ele>
        <time>2000-01-01T00:00:00Z</time>
      </trkpt>
      <trkpt lat="47.60151" lon="6.66467">
        <ele>451.18</ele>
        <time>2000-01-01T00:00:00Z</time>
      </trkpt>
      <trkpt lat="47.6015" lon="6.6648">
        <ele>452.62229581188</ele>
        <time>2000-01-01T00:00:00Z</time>
      </trkpt>
      <trkpt lat="47.60153" lon="6.66502">
        <ele>455.18</ele>
        <time>2000-01-01T00:00:00Z</time>
      </trkpt>
      <trkpt lat="47.60154" lon="6.66515">
        <ele>456.06295628923</ele>
        <time>2000-01-01T00:00:00Z</time>
      </trkpt>
      <trkpt lat="47.60169" lon="6.66549">
        <ele>458.86</ele>
        <time>2000-01-01T00:00:00Z</time>
      </trkpt>
      <trkpt lat="47.6017" lon="6.66552">
        <ele>459.20044280506</ele>
        <time>2000-01-01T00:00:00Z</time>
      </trkpt>
      <trkpt lat="47.60168" lon="6.66584">
        <ele>462.36</ele>
        <time>2000-01-01T00:00:00Z</time>
      </trkpt>
      <trkpt lat="47.60167" lon="6.66596">
        <ele>463.44823630893</ele>
        <time>2000-01-01T00:00:00Z</time>
      </trkpt>
      <trkpt lat="47.60163" lon="6.66619">
        <ele>465.54</ele>
        <time>2000-01-01T00:00:00Z</time>
      </trkpt>
      <trkpt lat="47.60156" lon="6.66653">
        <ele>469.47</ele>
        <time>2000-01-01T00:00:00Z</time>
      </trkpt>
      <trkpt lat="47.60149" lon="6.66692">
        <ele>473.03401676451</ele>
        <time>2000-01-01T00:00:00Z</time>
      </trkpt>
      <trkpt lat="47.60145" lon="6.66703">
        <ele>474.13</ele>
        <time>2000-01-01T00:00:00Z</time>
      </trkpt>
      <trkpt lat="47.60134" lon="6.66735">
        <ele>478.5</ele>
        <time>2000-01-01T00:00:00Z</time>
      </trkpt>
      <trkpt lat="47.60133" lon="6.66737">
        <ele>478.77527023028</ele>
        <time>2000-01-01T00:00:00Z</time>
      </trkpt>
      <trkpt lat="47.60113" lon="6.66751">
        <ele>481.97</ele>
        <time>2000-01-01T00:00:00Z</time>
      </trkpt>
      <trkpt lat="47.60091" lon="6.66767">
        <ele>484.65312876475</ele>
        <time>2000-01-01T00:00:00Z</time>
      </trkpt>
      <trkpt lat="47.60075" lon="6.66778">
        <ele>485.89497289098</ele>
        <time>2000-01-01T00:00:00Z</time>
      </trkpt>
      <trkpt lat="47.60069" lon="6.66783">
        <ele>486.37960631398</ele>
        <time>2000-01-01T00:00:00Z</time>
      </trkpt>
      <trkpt lat="47.60062" lon="6.66795">
        <ele>487.14</ele>
        <time>2000-01-01T00:00:00Z</time>
      </trkpt>
      <trkpt lat="47.60061" lon="6.66796">
        <ele>487.21409388136</ele>
        <time>2000-01-01T00:00:00Z</time>
      </trkpt>
      <trkpt lat="47.60049" lon="6.66825">
        <ele>488.8</ele>
        <time>2000-01-01T00:00:00Z</time>
      </trkpt>
      <trkpt lat="47.60037" lon="6.66856">
        <ele>488.49</ele>
        <time>2000-01-01T00:00:00Z</time>
      </trkpt>
      <trkpt lat="47.60036" lon="6.66859">
        <ele>488.36017745109</ele>
        <time>2000-01-01T00:00:00Z</time>
      </trkpt>
      <trkpt lat="47.60044" lon="6.66885">
        <ele>487.34109823824</ele>
        <time>2000-01-01T00:00:00Z</time>
      </trkpt>
      <trkpt lat="47.60048" lon="6.66905">
        <ele>486.59</ele>
        <time>2000-01-01T00:00:00Z</time>
      </trkpt>
      <trkpt lat="47.60051" lon="6.66922">
        <ele>485.67585838689</ele>
        <time>2000-01-01T00:00:00Z</time>
      </trkpt>
      <trkpt lat="47.60045" lon="6.66938">
        <ele>484.72</ele>
        <time>2000-01-01T00:00:00Z</time>
      </trkpt>
      <trkpt lat="47.60041" lon="6.66951">
        <ele>483.93682560803</ele>
        <time>2000-01-01T00:00:00Z</time>
      </trkpt>
      <trkpt lat="47.6004" lon="6.66972">
        <ele>482.79</ele>
        <time>2000-01-01T00:00:00Z</time>
      </trkpt>
      <trkpt lat="47.60038" lon="6.66995">
        <ele>481.3192744213</ele>
        <time>2000-01-01T00:00:00Z</time>
      </trkpt>
      <trkpt lat="47.60035" lon="6.67006">
        <ele>480.53</ele>
        <time>2000-01-01T00:00:00Z</time>
      </trkpt>
      <trkpt lat="47.60032" lon="6.67016">
        <ele>480.2645081264</ele>
        <time>2000-01-01T00:00:00Z</time>
      </trkpt>
      <trkpt lat="47.60015" lon="6.67051">
        <ele>479.17</ele>
        <time>2000-01-01T00:00:00Z</time>
      </trkpt>
      <trkpt lat="47.60003" lon="6.67074">
        <ele>478.41878333937</ele>
        <time>2000-01-01T00:00:00Z</time>
      </trkpt>
      <trkpt lat="47.59997" lon="6.67115">
        <ele>477.35</ele>
        <time>2000-01-01T00:00:00Z</time>
      </trkpt>
      <trkpt lat="47.59993" lon="6.67137">
        <ele>475.88009482869</ele>
        <time>2000-01-01T00:00:00Z</time>
      </trkpt>
      <trkpt lat="47.59992" lon="6.6715">
        <ele>475.07174279306</ele>
        <time>2000-01-01T00:00:00Z</time>
      </trkpt>
      <trkpt lat="47.59988" lon="6.67156">
        <ele>474.94822970453</ele>
        <time>2000-01-01T00:00:00Z</time>
      </trkpt>
      <trkpt lat="47.59978" lon="6.67156">
        <ele>474.73113435865</ele>
        <time>2000-01-01T00:00:00Z</time>
      </trkpt>
      <trkpt lat="47.59975" lon="6.67148">
        <ele>474.5971317946</ele>
        <time>2000-01-01T00:00:00Z</time>
      </trkpt>
      <trkpt lat="47.59962" lon="6.67142">
        <ele>474.3</ele>
        <time>2000-01-01T00:00:00Z</time>
      </trkpt>
      <trkpt lat="47.59955" lon="6.67138">
        <ele>474.39912159765</ele>
        <time>2000-01-01T00:00:00Z</time>
      </trkpt>
      <trkpt lat="47.59939" lon="6.67142">
        <ele>474.62</ele>
        <time>2000-01-01T00:00:00Z</time>
      </trkpt>
      <trkpt lat="47.59919" lon="6.67146">
        <ele>475.69005881995</ele>
        <time>2000-01-01T00:00:00Z</time>
      </trkpt>
      <trkpt lat="47.59915" lon="6.67147">
        <ele>475.91</ele>
        <time>2000-01-01T00:00:00Z</time>
      </trkpt>
      <trkpt lat="47.59901" lon="6.67152">
        <ele>476.2398549346</ele>
        <time>2000-01-01T00:00:00Z</time>
      </trkpt>
      <trkpt lat="47.59894" lon="6.67162">
        <ele>476.46</ele>
        <time>2000-01-01T00:00:00Z</time>
      </trkpt>
      <trkpt lat="47.59889" lon="6.67168">
        <ele>476.48916722757</ele>
        <time>2000-01-01T00:00:00Z</time>
      </trkpt>
      <trkpt lat="47.59872" lon="6.67203">
        <ele>476.62</ele>
        <time>2000-01-01T00:00:00Z</time>
      </trkpt>
      <trkpt lat="47.59858" lon="6.67231">
        <ele>477.22080210718</ele>
        <time>2000-01-01T00:00:00Z</time>
      </trkpt>
      <trkpt lat="47.59842" lon="6.67256">
        <ele>478.4799698438</ele>
        <time>2000-01-01T00:00:00Z</time>
      </trkpt>
      <trkpt lat="47.59841" lon="6.67256">
        <ele>478.56</ele>
        <time>2000-01-01T00:00:00Z</time>
      </trkpt>
      <trkpt lat="47.59817" lon="6.67264">
        <ele>480.43</ele>
        <time>2000-01-01T00:00:00Z</time>
      </trkpt>
      <trkpt lat="47.59813" lon="6.67265">
        <ele>480.65334251065</ele>
        <time>2000-01-01T00:00:00Z</time>
      </trkpt>
      <trkpt lat="47.59781" lon="6.67264">
        <ele>482.33</ele>
        <time>2000-01-01T00:00:00Z</time>
      </trkpt>
      <trkpt lat="47.59761" lon="6.67263">
        <ele>483.55112940558</ele>
        <time>2000-01-01T00:00:00Z</time>
      </trkpt>
      <trkpt lat="47.59757" lon="6.67264">
        <ele>483.77</ele>
        <time>2000-01-01T00:00:00Z</time>
      </trkpt>
      <trkpt lat="47.5971" lon="6.6727">
        <ele>483.64088975451</ele>
        <time>2000-01-01T00:00:00Z</time>
      </trkpt>
      <trkpt lat="47.59678" lon="6.67294">
        <ele>482.62</ele>
        <time>2000-01-01T00:00:00Z</time>
      </trkpt>
      <trkpt lat="47.59662" lon="6.67305">
        <ele>482.28906586149</ele>
        <time>2000-01-01T00:00:00Z</time>
      </trkpt>
      <trkpt lat="47.59644" lon="6.67342">
        <ele>481.7</ele>
        <time>2000-01-01T00:00:00Z</time>
      </trkpt>
      <trkpt lat="47.59638" lon="6.67353">
        <ele>481.2741712561</ele>
        <time>2000-01-01T00:00:00Z</time>
      </trkpt>
      <trkpt lat="47.59634" lon="6.67373">
        <ele>480.64</ele>
        <time>2000-01-01T00:00:00Z</time>
      </trkpt>
      <trkpt lat="47.59623" lon="6.67424">
        <ele>479.78</ele>
        <time>2000-01-01T00:00:00Z</time>
      </trkpt>
      <trkpt lat="47.59621" lon="6.67432">
        <ele>479.60510187129</ele>
        <time>2000-01-01T00:00:00Z</time>
      </trkpt>
      <trkpt lat="47.59617" lon="6.67459">
        <ele>479.04</ele>
        <time>2000-01-01T00:00:00Z</time>
      </trkpt>
      <trkpt lat="47.59612" lon="6.67493">
        <ele>478.45</ele>
        <time>2000-01-01T00:00:00Z</time>
      </trkpt>
      <trkpt lat="47.59607" lon="6.67528">
        <ele>477.74</ele>
        <time>2000-01-01T00:00:00Z</time>
      </trkpt>
      <trkpt lat="47.59605" lon="6.67544">
        <ele>477.50104433194</ele>
        <time>2000-01-01T00:00:00Z</time>
      </trkpt>
      <trkpt lat="47.59605" lon="6.67581">
        <ele>476.96</ele>
        <time>2000-01-01T00:00:00Z</time>
      </trkpt>
      <trkpt lat="47.59606" lon="6.67617">
        <ele>476.17</ele>
        <time>2000-01-01T00:00:00Z</time>
      </trkpt>
      <trkpt lat="47.59606" lon="6.67656">
        <ele>475.90844156634</ele>
        <time>2000-01-01T00:00:00Z</time>
      </trkpt>
      <trkpt lat="47.59602" lon="6.67687">
        <ele>475.7</ele>
        <time>2000-01-01T00:00:00Z</time>
      </trkpt>
      <trkpt lat="47.59595" lon="6.67739">
        <ele>474.94</ele>
        <time>2000-01-01T00:00:00Z</time>
      </trkpt>
      <trkpt lat="47.5959" lon="6.67774">
        <ele>473.29</ele>
        <time>2000-01-01T00:00:00Z</time>
      </trkpt>
      <trkpt lat="47.59586" lon="6.67806">
        <ele>471.36256999878</ele>
        <time>2000-01-01T00:00:00Z</time>
      </trkpt>
      <trkpt lat="47.59586" lon="6.67809">
        <ele>471.19</ele>
        <time>2000-01-01T00:00:00Z</time>
      </trkpt>
      <trkpt lat="47.59584" lon="6.67862">
        <ele>468.86</ele>
        <time>2000-01-01T00:00:00Z</time>
      </trkpt>
      <trkpt lat="47.59583" lon="6.67898">
        <ele>466.83</ele>
        <time>2000-01-01T00:00:00Z</time>
      </trkpt>
      <trkpt lat="47.59583" lon="6.67905">
        <ele>466.58888426869</ele>
        <time>2000-01-01T00:00:00Z</time>
      </trkpt>
      <trkpt lat="47.59586" lon="6.67933">
        <ele>465.67</ele>
        <time>2000-01-01T00:00:00Z</time>
      </trkpt>
      <trkpt lat="47.59591" lon="6.67974">
        <ele>465.47193315877</ele>
        <time>2000-01-01T00:00:00Z</time>
      </trkpt>
      <trkpt lat="47.596" lon="6.68019">
        <ele>465.25</ele>
        <time>2000-01-01T00:00:00Z</time>
      </trkpt>
      <trkpt lat="47.59615" lon="6.68087">
        <ele>465.28</ele>
        <time>2000-01-01T00:00:00Z</time>
      </trkpt>
      <trkpt lat="47.59622" lon="6.68121">
        <ele>465.6</ele>
        <time>2000-01-01T00:00:00Z</time>
      </trkpt>
      <trkpt lat="47.59639" lon="6.68206">
        <ele>465.87</ele>
        <time>2000-01-01T00:00:00Z</time>
      </trkpt>
      <trkpt lat="47.59642" lon="6.68219">
        <ele>465.84613503491</ele>
        <time>2000-01-01T00:00:00Z</time>
      </trkpt>
      <trkpt lat="47.59646" lon="6.6824">
        <ele>465.81</ele>
        <time>2000-01-01T00:00:00Z</time>
      </trkpt>
      <trkpt lat="47.5965" lon="6.68266">
        <ele>465.53551391939</ele>
        <time>2000-01-01T00:00:00Z</time>
      </trkpt>
      <trkpt lat="47.59652" lon="6.68274">
        <ele>465.45</ele>
        <time>2000-01-01T00:00:00Z</time>
      </trkpt>
      <trkpt lat="47.59653" lon="6.68277">
        <ele>465.38694226255</ele>
        <time>2000-01-01T00:00:00Z</time>
      </trkpt>
      <trkpt lat="47.59684" lon="6.68297">
        <ele>464.47</ele>
        <time>2000-01-01T00:00:00Z</time>
      </trkpt>
      <trkpt lat="47.59706" lon="6.68312">
        <ele>462.73389971509</ele>
        <time>2000-01-01T00:00:00Z</time>
      </trkpt>
      <trkpt lat="47.59726" lon="6.6833">
        <ele>460.84</ele>
        <time>2000-01-01T00:00:00Z</time>
      </trkpt>
      <trkpt lat="47.59738" lon="6.68341">
        <ele>459.61861185749</ele>
        <time>2000-01-01T00:00:00Z</time>
      </trkpt>
      <trkpt lat="47.59746" lon="6.68349">
        <ele>458.75</ele>
        <time>2000-01-01T00:00:00Z</time>
      </trkpt>
      <trkpt lat="47.59776" lon="6.6838">
        <ele>456.83</ele>
        <time>2000-01-01T00:00:00Z</time>
      </trkpt>
      <trkpt lat="47.59778" lon="6.68382">
        <ele>456.62857164427</ele>
        <time>2000-01-01T00:00:00Z</time>
      </trkpt>
      <trkpt lat="47.59792" lon="6.68406">
        <ele>455.06027949681</ele>
        <time>2000-01-01T00:00:00Z</time>
      </trkpt>
      <trkpt lat="47.59805" lon="6.68437">
        <ele>453.77451599658</ele>
        <time>2000-01-01T00:00:00Z</time>
      </trkpt>
      <trkpt lat="47.59808" lon="6.68471">
        <ele>452.27</ele>
        <time>2000-01-01T00:00:00Z</time>
      </trkpt>
      <trkpt lat="47.59814" lon="6.68524">
        <ele>450.04</ele>
        <time>2000-01-01T00:00:00Z</time>
      </trkpt>
      <trkpt lat="47.59815" lon="6.68537">
        <ele>448.97149534876</ele>
        <time>2000-01-01T00:00:00Z</time>
      </trkpt>
      <trkpt lat="47.59819" lon="6.68558">
        <ele>447.24</ele>
        <time>2000-01-01T00:00:00Z</time>
      </trkpt>
      <trkpt lat="47.59821" lon="6.68569">
        <ele>446.1000016285</ele>
        <time>2000-01-01T00:00:00Z</time>
      </trkpt>
      <trkpt lat="47.59814" lon="6.68591">
        <ele>443.64</ele>
        <time>2000-01-01T00:00:00Z</time>
      </trkpt>
      <trkpt lat="47.59804" lon="6.68623">
        <ele>440.19</ele>
        <time>2000-01-01T00:00:00Z</time>
      </trkpt>
      <trkpt lat="47.59789" lon="6.68672">
        <ele>437.05</ele>
        <time>2000-01-01T00:00:00Z</time>
      </trkpt>
      <trkpt lat="47.59779" lon="6.68704">
        <ele>433.95</ele>
        <time>2000-01-01T00:00:00Z</time>
      </trkpt>
      <trkpt lat="47.59769" lon="6.68736">
        <ele>430.92</ele>
        <time>2000-01-01T00:00:00Z</time>
      </trkpt>
      <trkpt lat="47.59764" lon="6.6875">
        <ele>429.75687354993</ele>
        <time>2000-01-01T00:00:00Z</time>
      </trkpt>
      <trkpt lat="47.59751" lon="6.68753">
        <ele>428.28</ele>
        <time>2000-01-01T00:00:00Z</time>
      </trkpt>
      <trkpt lat="47.59692" lon="6.68767">
        <ele>426.01</ele>
        <time>2000-01-01T00:00:00Z</time>
      </trkpt>
      <trkpt lat="47.59668" lon="6.68772">
        <ele>423.05</ele>
        <time>2000-01-01T00:00:00Z</time>
      </trkpt>
      <trkpt lat="47.59644" lon="6.68778">
        <ele>419.8</ele>
        <time>2000-01-01T00:00:00Z</time>
      </trkpt>
      <trkpt lat="47.59609" lon="6.68786">
        <ele>416.22</ele>
        <time>2000-01-01T00:00:00Z</time>
      </trkpt>
      <trkpt lat="47.59585" lon="6.68791">
        <ele>413.04</ele>
        <time>2000-01-01T00:00:00Z</time>
      </trkpt>
      <trkpt lat="47.59574" lon="6.68794">
        <ele>412.7079130921</ele>
        <time>2000-01-01T00:00:00Z</time>
      </trkpt>
      <trkpt lat="47.59525" lon="6.68794">
        <ele>411.27</ele>
        <time>2000-01-01T00:00:00Z</time>
      </trkpt>
      <trkpt lat="47.59479" lon="6.68794">
        <ele>410.10887143339</ele>
        <time>2000-01-01T00:00:00Z</time>
      </trkpt>
      <trkpt lat="47.59478" lon="6.68793">
        <ele>410.07</ele>
        <time>2000-01-01T00:00:00Z</time>
      </trkpt>
      <trkpt lat="47.5947" lon="6.68789">
        <ele>409.92868650528</ele>
        <time>2000-01-01T00:00:00Z</time>
      </trkpt>
      <trkpt lat="47.59464" lon="6.68789">
        <ele>409.82347876074</ele>
        <time>2000-01-01T00:00:00Z</time>
      </trkpt>
      <trkpt lat="47.5946" lon="6.68786">
        <ele>409.74487943907</ele>
        <time>2000-01-01T00:00:00Z</time>
      </trkpt>
      <trkpt lat="47.59455" lon="6.68786">
        <ele>409.65720631862</ele>
        <time>2000-01-01T00:00:00Z</time>
      </trkpt>
      <trkpt lat="47.59447" lon="6.6878">
        <ele>409.70713995887</ele>
        <time>2000-01-01T00:00:00Z</time>
      </trkpt>
      <trkpt lat="47.59438" lon="6.6878">
        <ele>409.76725867004</ele>
        <time>2000-01-01T00:00:00Z</time>
      </trkpt>
      <trkpt lat="47.59434" lon="6.68775">
        <ele>409.8022049482</ele>
        <time>2000-01-01T00:00:00Z</time>
      </trkpt>
      <trkpt lat="47.59431" lon="6.68775">
        <ele>409.82224451859</ele>
        <time>2000-01-01T00:00:00Z</time>
      </trkpt>
      <trkpt lat="47.59421" lon="6.6877">
        <ele>409.89</ele>
        <time>2000-01-01T00:00:00Z</time>
      </trkpt>
      <trkpt lat="47.59414" lon="6.68767">
        <ele>409.78081045674</ele>
        <time>2000-01-01T00:00:00Z</time>
      </trkpt>
      <trkpt lat="47.59403" lon="6.68767">
        <ele>409.62466880413</ele>
        <time>2000-01-01T00:00:00Z</time>
      </trkpt>
      <trkpt lat="47.59399" lon="6.68763">
        <ele>409.55</ele>
        <time>2000-01-01T00:00:00Z</time>
      </trkpt>
      <trkpt lat="47.59394" lon="6.68758">
        <ele>409.41802417696</ele>
        <time>2000-01-01T00:00:00Z</time>
      </trkpt>
      <trkpt lat="47.59369" lon="6.68747">
        <ele>408.80290457131</ele>
        <time>2000-01-01T00:00:00Z</time>
      </trkpt>
      <trkpt lat="47.59358" lon="6.68739">
        <ele>408.51390589365</ele>
        <time>2000-01-01T00:00:00Z</time>
      </trkpt>
      <trkpt lat="47.59354" lon="6.68739">
        <ele>408.42</ele>
        <time>2000-01-01T00:00:00Z</time>
      </trkpt>
      <trkpt lat="47.59343" lon="6.68739">
        <ele>407.92623290697</ele>
        <time>2000-01-01T00:00:00Z</time>
      </trkpt>
      <trkpt lat="47.5934" lon="6.68736">
        <ele>407.76408758855</ele>
        <time>2000-01-01T00:00:00Z</time>
      </trkpt>
      <trkpt lat="47.59319" lon="6.68736">
        <ele>406.81</ele>
        <time>2000-01-01T00:00:00Z</time>
      </trkpt>
      <trkpt lat="47.59295" lon="6.68736">
        <ele>403.79</ele>
        <time>2000-01-01T00:00:00Z</time>
      </trkpt>
      <trkpt lat="47.59271" lon="6.68736">
        <ele>399.97</ele>
        <time>2000-01-01T00:00:00Z</time>
      </trkpt>
      <trkpt lat="47.59247" lon="6.68736">
        <ele>396.48</ele>
        <time>2000-01-01T00:00:00Z</time>
      </trkpt>
      <trkpt lat="47.59211" lon="6.68736">
        <ele>393.57</ele>
        <time>2000-01-01T00:00:00Z</time>
      </trkpt>
      <trkpt lat="47.59187" lon="6.68736">
        <ele>390.7</ele>
        <time>2000-01-01T00:00:00Z</time>
      </trkpt>
      <trkpt lat="47.59163" lon="6.68736">
        <ele>387.99</ele>
        <time>2000-01-01T00:00:00Z</time>
      </trkpt>
      <trkpt lat="47.59139" lon="6.68736">
        <ele>385.32</ele>
        <time>2000-01-01T00:00:00Z</time>
      </trkpt>
      <trkpt lat="47.59103" lon="6.68736">
        <ele>382.16</ele>
        <time>2000-01-01T00:00:00Z</time>
      </trkpt>
      <trkpt lat="47.59096" lon="6.68736">
        <ele>381.25742319347</ele>
        <time>2000-01-01T00:00:00Z</time>
      </trkpt>
      <trkpt lat="47.59089" lon="6.68714">
        <ele>379.13</ele>
        <time>2000-01-01T00:00:00Z</time>
      </trkpt>
      <trkpt lat="47.59078" lon="6.68682">
        <ele>377.96</ele>
        <time>2000-01-01T00:00:00Z</time>
      </trkpt>
      <trkpt lat="47.59067" lon="6.6865">
        <ele>377.8</ele>
        <time>2000-01-01T00:00:00Z</time>
      </trkpt>
      <trkpt lat="47.59059" lon="6.68626">
        <ele>377.91636958448</ele>
        <time>2000-01-01T00:00:00Z</time>
      </trkpt>
      <trkpt lat="47.59054" lon="6.68604">
        <ele>378.01659927951</ele>
        <time>2000-01-01T00:00:00Z</time>
      </trkpt>
      <trkpt lat="47.59054" lon="6.68601">
        <ele>378.03</ele>
        <time>2000-01-01T00:00:00Z</time>
      </trkpt>
      <trkpt lat="47.59054" lon="6.68593">
        <ele>377.9299529768</ele>
        <time>2000-01-01T00:00:00Z</time>
      </trkpt>
      <trkpt lat="47.59046" lon="6.68568">
        <ele>377.57718217588</ele>
        <time>2000-01-01T00:00:00Z</time>
      </trkpt>
      <trkpt lat="47.59039" lon="6.68534">
        <ele>375.65</ele>
        <time>2000-01-01T00:00:00Z</time>
      </trkpt>
      <trkpt lat="47.59031" lon="6.685">
        <ele>373.33</ele>
        <time>2000-01-01T00:00:00Z</time>
      </trkpt>
      <trkpt lat="47.5903" lon="6.68494">
        <ele>373.0002475542</ele>
        <time>2000-01-01T00:00:00Z</time>
      </trkpt>
      <trkpt lat="47.59026" lon="6.68486">
        <ele>372.51234220864</ele>
        <time>2000-01-01T00:00:00Z</time>
      </trkpt>
      <trkpt lat="47.59024" lon="6.68458">
        <ele>371.13287231604</ele>
        <time>2000-01-01T00:00:00Z</time>
      </trkpt>
      <trkpt lat="47.59022" lon="6.68455">
        <ele>370.92620610377</ele>
        <time>2000-01-01T00:00:00Z</time>
      </trkpt>
      <trkpt lat="47.5902" lon="6.68455">
        <ele>370.78091921845</ele>
        <time>2000-01-01T00:00:00Z</time>
      </trkpt>
      <trkpt lat="47.5902" lon="6.68453">
        <ele>370.64757135437</ele>
        <time>2000-01-01T00:00:00Z</time>
      </trkpt>
      <trkpt lat="47.59017" lon="6.68453">
        <ele>370.22173048358</ele>
        <time>2000-01-01T00:00:00Z</time>
      </trkpt>
      <trkpt lat="47.59017" lon="6.68455">
        <ele>370.0302641749</ele>
        <time>2000-01-01T00:00:00Z</time>
      </trkpt>
      <trkpt lat="47.58999" lon="6.68446">
        <ele>367.32</ele>
        <time>2000-01-01T00:00:00Z</time>
      </trkpt>
      <trkpt lat="47.58976" lon="6.68436">
        <ele>364.14</ele>
        <time>2000-01-01T00:00:00Z</time>
      </trkpt>
      <trkpt lat="47.58953" lon="6.68425">
        <ele>361.7</ele>
        <time>2000-01-01T00:00:00Z</time>
      </trkpt>
      <trkpt lat="47.58931" lon="6.68414">
        <ele>361.01148222608</ele>
        <time>2000-01-01T00:00:00Z</time>
      </trkpt>
      <trkpt lat="47.58927" lon="6.68409">
        <ele>360.85712995215</ele>
        <time>2000-01-01T00:00:00Z</time>
      </trkpt>
      <trkpt lat="47.5892" lon="6.68404">
        <ele>360.64</ele>
        <time>2000-01-01T00:00:00Z</time>
      </trkpt>
      <trkpt lat="47.58914" lon="6.684">
        <ele>360.6370827307</ele>
        <time>2000-01-01T00:00:00Z</time>
      </trkpt>
      <trkpt lat="47.58907" lon="6.68392">
        <ele>360.63339290622</ele>
        <time>2000-01-01T00:00:00Z</time>
      </trkpt>
      <trkpt lat="47.589" lon="6.68392">
        <ele>360.63047046888</ele>
        <time>2000-01-01T00:00:00Z</time>
      </trkpt>
      <trkpt lat="47.58899" lon="6.68391">
        <ele>360.63</ele>
        <time>2000-01-01T00:00:00Z</time>
      </trkpt>
      <trkpt lat="47.5889" lon="6.68384">
        <ele>360.75392792885</ele>
        <time>2000-01-01T00:00:00Z</time>
      </trkpt>
      <trkpt lat="47.58887" lon="6.68378">
        <ele>360.81491714608</ele>
        <time>2000-01-01T00:00:00Z</time>
      </trkpt>
      <trkpt lat="47.58883" lon="6.68378">
        <ele>360.86334610785</ele>
        <time>2000-01-01T00:00:00Z</time>
      </trkpt>
      <trkpt lat="47.58881" lon="6.68373">
        <ele>360.91081506189</ele>
        <time>2000-01-01T00:00:00Z</time>
      </trkpt>
      <trkpt lat="47.58875" lon="6.6837">
        <ele>360.96467496177</ele>
        <time>2000-01-01T00:00:00Z</time>
      </trkpt>
      <trkpt lat="47.58872" lon="6.68364">
        <ele>361.00505410441</ele>
        <time>2000-01-01T00:00:00Z</time>
      </trkpt>
      <trkpt lat="47.58868" lon="6.68364">
        <ele>361.03711741703</ele>
        <time>2000-01-01T00:00:00Z</time>
      </trkpt>
      <trkpt lat="47.58866" lon="6.68359">
        <ele>361.06854520496</ele>
        <time>2000-01-01T00:00:00Z</time>
      </trkpt>
      <trkpt lat="47.58856" lon="6.68365">
        <ele>361.15501802601</ele>
        <time>2000-01-01T00:00:00Z</time>
      </trkpt>
      <trkpt lat="47.58862" lon="6.68385">
        <ele>361.27335750116</ele>
        <time>2000-01-01T00:00:00Z</time>
      </trkpt>
      <trkpt lat="47.58874" lon="6.68372">
        <ele>361.39248759462</ele>
        <time>2000-01-01T00:00:00Z</time>
      </trkpt>
      <trkpt lat="47.58875" lon="6.68371">
        <ele>361.4</ele>
        <time>2000-01-01T00:00:00Z</time>
      </trkpt>
      <trkpt lat="47.58889" lon="6.68359">
        <ele>362.12055630309</ele>
        <time>2000-01-01T00:00:00Z</time>
      </trkpt>
      <trkpt lat="47.58892" lon="6.68352">
        <ele>362.36576280025</ele>
        <time>2000-01-01T00:00:00Z</time>
      </trkpt>
      <trkpt lat="47.58892" lon="6.68349">
        <ele>362.45</ele>
        <time>2000-01-01T00:00:00Z</time>
      </trkpt>
      <trkpt lat="47.58893" lon="6.68342">
        <ele>362.57265628342</ele>
        <time>2000-01-01T00:00:00Z</time>
      </trkpt>
      <trkpt lat="47.58889" lon="6.68314">
        <ele>363.05</ele>
        <time>2000-01-01T00:00:00Z</time>
      </trkpt>
      <trkpt lat="47.58886" lon="6.68289">
        <ele>363.17762112333</ele>
        <time>2000-01-01T00:00:00Z</time>
      </trkpt>
      <trkpt lat="47.5888" lon="6.68263">
        <ele>363.3138037126</ele>
        <time>2000-01-01T00:00:00Z</time>
      </trkpt>
      <trkpt lat="47.58872" lon="6.6823">
        <ele>363.49</ele>
        <time>2000-01-01T00:00:00Z</time>
      </trkpt>
      <trkpt lat="47.58864" lon="6.68196">
        <ele>364.49</ele>
        <time>2000-01-01T00:00:00Z</time>
      </trkpt>
      <trkpt lat="47.58857" lon="6.68167">
        <ele>365.83462534573</ele>
        <time>2000-01-01T00:00:00Z</time>
      </trkpt>
      <trkpt lat="47.58856" lon="6.68162">
        <ele>366.04</ele>
        <time>2000-01-01T00:00:00Z</time>
      </trkpt>
      <trkpt lat="47.58854" lon="6.68148">
        <ele>366.61540662918</ele>
        <time>2000-01-01T00:00:00Z</time>
      </trkpt>
      <trkpt lat="47.58879" lon="6.68135">
        <ele>368.11</ele>
        <time>2000-01-01T00:00:00Z</time>
      </trkpt>
      <trkpt lat="47.58901" lon="6.68124">
        <ele>370.54</ele>
        <time>2000-01-01T00:00:00Z</time>
      </trkpt>
      <trkpt lat="47.58904" lon="6.68122">
        <ele>370.79040006074</ele>
        <time>2000-01-01T00:00:00Z</time>
      </trkpt>
      <trkpt lat="47.58899" lon="6.68092">
        <ele>372.48</ele>
        <time>2000-01-01T00:00:00Z</time>
      </trkpt>
      <trkpt lat="47.58894" lon="6.68057">
        <ele>373.6</ele>
        <time>2000-01-01T00:00:00Z</time>
      </trkpt>
      <trkpt lat="47.58891" lon="6.68038">
        <ele>373.94457701416</ele>
        <time>2000-01-01T00:00:00Z</time>
      </trkpt>
      <trkpt lat="47.58884" lon="6.68006">
        <ele>374.53</ele>
        <time>2000-01-01T00:00:00Z</time>
      </trkpt>
      <trkpt lat="47.58879" lon="6.67981">
        <ele>374.55948488093</ele>
        <time>2000-01-01T00:00:00Z</time>
      </trkpt>
      <trkpt lat="47.58874" lon="6.67942">
        <ele>374.60419724693</ele>
        <time>2000-01-01T00:00:00Z</time>
      </trkpt>
      <trkpt lat="47.58874" lon="6.67937">
        <ele>374.61</ele>
        <time>2000-01-01T00:00:00Z</time>
      </trkpt>
      <trkpt lat="47.58874" lon="6.67932">
        <ele>374.60126355407</ele>
        <time>2000-01-01T00:00:00Z</time>
      </trkpt>
      <trkpt lat="47.58868" lon="6.67849">
        <ele>374.45</ele>
        <time>2000-01-01T00:00:00Z</time>
      </trkpt>
      <trkpt lat="47.58865" lon="6.67815">
        <ele>374.48809218712</ele>
        <time>2000-01-01T00:00:00Z</time>
      </trkpt>
      <trkpt lat="47.58865" lon="6.67813">
        <ele>374.49</ele>
        <time>2000-01-01T00:00:00Z</time>
      </trkpt>
      <trkpt lat="47.5886" lon="6.67779">
        <ele>374.7</ele>
        <time>2000-01-01T00:00:00Z</time>
      </trkpt>
      <trkpt lat="47.58857" lon="6.67756">
        <ele>374.97814415765</ele>
        <time>2000-01-01T00:00:00Z</time>
      </trkpt>
      <trkpt lat="47.58855" lon="6.67744">
        <ele>375.13</ele>
        <time>2000-01-01T00:00:00Z</time>
      </trkpt>
      <trkpt lat="47.58847" lon="6.67699">
        <ele>375.74781645336</ele>
        <time>2000-01-01T00:00:00Z</time>
      </trkpt>
      <trkpt lat="47.58846" lon="6.67692">
        <ele>375.84</ele>
        <time>2000-01-01T00:00:00Z</time>
      </trkpt>
      <trkpt lat="47.58842" lon="6.67657">
        <ele>376.92</ele>
        <time>2000-01-01T00:00:00Z</time>
      </trkpt>
      <trkpt lat="47.58841" lon="6.67646">
        <ele>377.46460625965</ele>
        <time>2000-01-01T00:00:00Z</time>
      </trkpt>
      <trkpt lat="47.58835" lon="6.67646">
        <ele>377.89295207669</ele>
        <time>2000-01-01T00:00:00Z</time>
      </trkpt>
      <trkpt lat="47.58845" lon="6.67642">
        <ele>378.63</ele>
        <time>2000-01-01T00:00:00Z</time>
      </trkpt>
      <trkpt lat="47.58852" lon="6.67639">
        <ele>379.67200642198</ele>
        <time>2000-01-01T00:00:00Z</time>
      </trkpt>
      <trkpt lat="47.58865" lon="6.67637">
        <ele>381.53268050222</ele>
        <time>2000-01-01T00:00:00Z</time>
      </trkpt>
      <trkpt lat="47.58868" lon="6.67635">
        <ele>382.04</ele>
        <time>2000-01-01T00:00:00Z</time>
      </trkpt>
      <trkpt lat="47.5889" lon="6.67623">
        <ele>384.40572260007</ele>
        <time>2000-01-01T00:00:00Z</time>
      </trkpt>
      <trkpt lat="47.58902" lon="6.67618">
        <ele>385.71</ele>
        <time>2000-01-01T00:00:00Z</time>
      </trkpt>
      <trkpt lat="47.58916" lon="6.67612">
        <ele>387.8486289169</ele>
        <time>2000-01-01T00:00:00Z</time>
      </trkpt>
      <trkpt lat="47.58926" lon="6.67609">
        <ele>389.3</ele>
        <time>2000-01-01T00:00:00Z</time>
      </trkpt>
      <trkpt lat="47.58949" lon="6.67602">
        <ele>393.09</ele>
        <time>2000-01-01T00:00:00Z</time>
      </trkpt>
      <trkpt lat="47.58969" lon="6.67596">
        <ele>395.94175416095</ele>
        <time>2000-01-01T00:00:00Z</time>
      </trkpt>
      <trkpt lat="47.58972" lon="6.67593">
        <ele>396.43</ele>
        <time>2000-01-01T00:00:00Z</time>
      </trkpt>
      <trkpt lat="47.58992" lon="6.67574">
        <ele>398.29016862354</ele>
        <time>2000-01-01T00:00:00Z</time>
      </trkpt>
      <trkpt lat="47.58999" lon="6.6756">
        <ele>399.23</ele>
        <time>2000-01-01T00:00:00Z</time>
      </trkpt>
      <trkpt lat="47.59001" lon="6.67556">
        <ele>399.48868988468</ele>
        <time>2000-01-01T00:00:00Z</time>
      </trkpt>
      <trkpt lat="47.59011" lon="6.67535">
        <ele>400.95806170474</ele>
        <time>2000-01-01T00:00:00Z</time>
      </trkpt>
      <trkpt lat="47.59012" lon="6.6753">
        <ele>401.26</ele>
        <time>2000-01-01T00:00:00Z</time>
      </trkpt>
      <trkpt lat="47.59022" lon="6.67497">
        <ele>403.01</ele>
        <time>2000-01-01T00:00:00Z</time>
      </trkpt>
      <trkpt lat="47.59031" lon="6.67465">
        <ele>405.38</ele>
        <time>2000-01-01T00:00:00Z</time>
      </trkpt>
      <trkpt lat="47.59037" lon="6.67444">
        <ele>406.85926502818</ele>
        <time>2000-01-01T00:00:00Z</time>
      </trkpt>
      <trkpt lat="47.59045" lon="6.67416">
        <ele>408.88</ele>
        <time>2000-01-01T00:00:00Z</time>
      </trkpt>
      <trkpt lat="47.59055" lon="6.67383">
        <ele>413.09</ele>
        <time>2000-01-01T00:00:00Z</time>
      </trkpt>
      <trkpt lat="47.59059" lon="6.67369">
        <ele>414.81104682058</ele>
        <time>2000-01-01T00:00:00Z</time>
      </trkpt>
      <trkpt lat="47.59063" lon="6.6735">
        <ele>417.03</ele>
        <time>2000-01-01T00:00:00Z</time>
      </trkpt>
      <trkpt lat="47.59074" lon="6.67299">
        <ele>420.41</ele>
        <time>2000-01-01T00:00:00Z</time>
      </trkpt>
      <trkpt lat="47.59082" lon="6.67266">
        <ele>423.56</ele>
        <time>2000-01-01T00:00:00Z</time>
      </trkpt>
      <trkpt lat="47.59085" lon="6.6725">
        <ele>425.17066848964</ele>
        <time>2000-01-01T00:00:00Z</time>
      </trkpt>
      <trkpt lat="47.59089" lon="6.67232">
        <ele>427.07</ele>
        <time>2000-01-01T00:00:00Z</time>
      </trkpt>
      <trkpt lat="47.59097" lon="6.67198">
        <ele>430.14</ele>
        <time>2000-01-01T00:00:00Z</time>
      </trkpt>
      <trkpt lat="47.59108" lon="6.67147">
        <ele>432.6</ele>
        <time>2000-01-01T00:00:00Z</time>
      </trkpt>
      <trkpt lat="47.59112" lon="6.67128">
        <ele>433.93209749578</ele>
        <time>2000-01-01T00:00:00Z</time>
      </trkpt>
      <trkpt lat="47.59115" lon="6.67113">
        <ele>434.92</ele>
        <time>2000-01-01T00:00:00Z</time>
      </trkpt>
      <trkpt lat="47.59121" lon="6.67079">
        <ele>437.35</ele>
        <time>2000-01-01T00:00:00Z</time>
      </trkpt>
      <trkpt lat="47.59127" lon="6.67047">
        <ele>440.14897259512</ele>
        <time>2000-01-01T00:00:00Z</time>
      </trkpt>
      <trkpt lat="47.59128" lon="6.67045">
        <ele>440.33</ele>
        <time>2000-01-01T00:00:00Z</time>
      </trkpt>
      <trkpt lat="47.59133" lon="6.67031">
        <ele>441.39705447485</ele>
        <time>2000-01-01T00:00:00Z</time>
      </trkpt>
      <trkpt lat="47.59136" lon="6.67025">
        <ele>441.89056144715</ele>
        <time>2000-01-01T00:00:00Z</time>
      </trkpt>
      <trkpt lat="47.59145" lon="6.67003">
        <ele>443.59069186146</ele>
        <time>2000-01-01T00:00:00Z</time>
      </trkpt>
      <trkpt lat="47.59147" lon="6.67">
        <ele>443.85</ele>
        <time>2000-01-01T00:00:00Z</time>
      </trkpt>
      <trkpt lat="47.59163" lon="6.66974">
        <ele>447.09</ele>
        <time>2000-01-01T00:00:00Z</time>
      </trkpt>
      <trkpt lat="47.59179" lon="6.66947">
        <ele>449.31</ele>
        <time>2000-01-01T00:00:00Z</time>
      </trkpt>
      <trkpt lat="47.59182" lon="6.66941">
        <ele>449.40348852625</ele>
        <time>2000-01-01T00:00:00Z</time>
      </trkpt>
      <trkpt lat="47.59191" lon="6.66929">
        <ele>449.61774016584</ele>
        <time>2000-01-01T00:00:00Z</time>
      </trkpt>
      <trkpt lat="47.59216" lon="6.66893">
        <ele>450.23462310388</ele>
        <time>2000-01-01T00:00:00Z</time>
      </trkpt>
      <trkpt lat="47.59219" lon="6.66883">
        <ele>450.37</ele>
        <time>2000-01-01T00:00:00Z</time>
      </trkpt>
      <trkpt lat="47.5923" lon="6.66851">
        <ele>450.91</ele>
        <time>2000-01-01T00:00:00Z</time>
      </trkpt>
      <trkpt lat="47.59232" lon="6.66843">
        <ele>451.04022184674</ele>
        <time>2000-01-01T00:00:00Z</time>
      </trkpt>
      <trkpt lat="47.59232" lon="6.66839">
        <ele>451.10160117112</ele>
        <time>2000-01-01T00:00:00Z</time>
      </trkpt>
      <trkpt lat="47.59229" lon="6.66781">
        <ele>452</ele>
        <time>2000-01-01T00:00:00Z</time>
      </trkpt>
      <trkpt lat="47.59226" lon="6.66728">
        <ele>454.73</ele>
        <time>2000-01-01T00:00:00Z</time>
      </trkpt>
      <trkpt lat="47.59224" lon="6.66692">
        <ele>457.97</ele>
        <time>2000-01-01T00:00:00Z</time>
      </trkpt>
      <trkpt lat="47.59224" lon="6.66688">
        <ele>458.34405946216</ele>
        <time>2000-01-01T00:00:00Z</time>
      </trkpt>
      <trkpt lat="47.59233" lon="6.6666">
        <ele>461.19</ele>
        <time>2000-01-01T00:00:00Z</time>
      </trkpt>
      <trkpt lat="47.59234" lon="6.66658">
        <ele>461.4001718225</ele>
        <time>2000-01-01T00:00:00Z</time>
      </trkpt>
      <trkpt lat="47.59246" lon="6.66629">
        <ele>464.79</ele>
        <time>2000-01-01T00:00:00Z</time>
      </trkpt>
      <trkpt lat="47.59246" lon="6.66628">
        <ele>464.88141169951</ele>
        <time>2000-01-01T00:00:00Z</time>
      </trkpt>
      <trkpt lat="47.59255" lon="6.6661">
        <ele>466.30723389255</ele>
        <time>2000-01-01T00:00:00Z</time>
      </trkpt>
      <trkpt lat="47.59269" lon="6.66589">
        <ele>468.18</ele>
        <time>2000-01-01T00:00:00Z</time>
      </trkpt>
      <trkpt lat="47.59279" lon="6.66572">
        <ele>470.04692101076</ele>
        <time>2000-01-01T00:00:00Z</time>
      </trkpt>
      <trkpt lat="47.59284" lon="6.66562">
        <ele>471.11</ele>
        <time>2000-01-01T00:00:00Z</time>
      </trkpt>
      <trkpt lat="47.59289" lon="6.66551">
        <ele>471.95107694937</ele>
        <time>2000-01-01T00:00:00Z</time>
      </trkpt>
      <trkpt lat="47.59297" lon="6.66531">
        <ele>473.44</ele>
        <time>2000-01-01T00:00:00Z</time>
      </trkpt>
      <trkpt lat="47.59307" lon="6.66504">
        <ele>474.87008479273</ele>
        <time>2000-01-01T00:00:00Z</time>
      </trkpt>
      <trkpt lat="47.59308" lon="6.665">
        <ele>475.06</ele>
        <time>2000-01-01T00:00:00Z</time>
      </trkpt>
      <trkpt lat="47.59323" lon="6.66452">
        <ele>476.5</ele>
        <time>2000-01-01T00:00:00Z</time>
      </trkpt>
      <trkpt lat="47.59334" lon="6.6642">
        <ele>477.54</ele>
        <time>2000-01-01T00:00:00Z</time>
      </trkpt>
      <trkpt lat="47.59336" lon="6.66412">
        <ele>477.79655264084</ele>
        <time>2000-01-01T00:00:00Z</time>
      </trkpt>
      <trkpt lat="47.59348" lon="6.66392">
        <ele>478.6</ele>
        <time>2000-01-01T00:00:00Z</time>
      </trkpt>
      <trkpt lat="47.59363" lon="6.66365">
        <ele>479.75</ele>
        <time>2000-01-01T00:00:00Z</time>
      </trkpt>
      <trkpt lat="47.59369" lon="6.66355">
        <ele>479.99760445048</ele>
        <time>2000-01-01T00:00:00Z</time>
      </trkpt>
      <trkpt lat="47.59386" lon="6.66323">
        <ele>480.79</ele>
        <time>2000-01-01T00:00:00Z</time>
      </trkpt>
      <trkpt lat="47.59389" lon="6.66316">
        <ele>481.12829967401</ele>
        <time>2000-01-01T00:00:00Z</time>
      </trkpt>
      <trkpt lat="47.59403" lon="6.66298">
        <ele>482.22</ele>
        <time>2000-01-01T00:00:00Z</time>
      </trkpt>
      <trkpt lat="47.59405" lon="6.66295">
        <ele>482.46955980089</ele>
        <time>2000-01-01T00:00:00Z</time>
      </trkpt>
      <trkpt lat="47.59411" lon="6.66285">
        <ele>483.20064979619</ele>
        <time>2000-01-01T00:00:00Z</time>
      </trkpt>
      <trkpt lat="47.59415" lon="6.66281">
        <ele>483.59140827332</ele>
        <time>2000-01-01T00:00:00Z</time>
      </trkpt>
      <trkpt lat="47.59419" lon="6.66273">
        <ele>484.16</ele>
        <time>2000-01-01T00:00:00Z</time>
      </trkpt>
      <trkpt lat="47.59426" lon="6.66259">
        <ele>485.13987731001</ele>
        <time>2000-01-01T00:00:00Z</time>
      </trkpt>
      <trkpt lat="47.59435" lon="6.66246">
        <ele>486.21</ele>
        <time>2000-01-01T00:00:00Z</time>
      </trkpt>
      <trkpt lat="47.5944" lon="6.66238">
        <ele>486.49462204166</ele>
        <time>2000-01-01T00:00:00Z</time>
      </trkpt>
      <trkpt lat="47.59441" lon="6.66196">
        <ele>487.59</ele>
        <time>2000-01-01T00:00:00Z</time>
      </trkpt>
      <trkpt lat="47.59441" lon="6.6616">
        <ele>487.93</ele>
        <time>2000-01-01T00:00:00Z</time>
      </trkpt>
      <trkpt lat="47.59441" lon="6.66125">
        <ele>487.75</ele>
        <time>2000-01-01T00:00:00Z</time>
      </trkpt>
      <trkpt lat="47.59442" lon="6.6608">
        <ele>487.66609527149</ele>
        <time>2000-01-01T00:00:00Z</time>
      </trkpt>
      <trkpt lat="47.59442" lon="6.66071">
        <ele>487.65</ele>
        <time>2000-01-01T00:00:00Z</time>
      </trkpt>
      <trkpt lat="47.59445" lon="6.66001">
        <ele>487.69</ele>
        <time>2000-01-01T00:00:00Z</time>
      </trkpt>
      <trkpt lat="47.59446" lon="6.65979">
        <ele>487.88669265498</ele>
        <time>2000-01-01T00:00:00Z</time>
      </trkpt>
      <trkpt lat="47.59448" lon="6.65934">
        <ele>488.2980757247</ele>
        <time>2000-01-01T00:00:00Z</time>
      </trkpt>
      <trkpt lat="47.59451" lon="6.65912">
        <ele>488.5</ele>
        <time>2000-01-01T00:00:00Z</time>
      </trkpt>
      <trkpt lat="47.59455" lon="6.65877">
        <ele>490.13</ele>
        <time>2000-01-01T00:00:00Z</time>
      </trkpt>
      <trkpt lat="47.59456" lon="6.65871">
        <ele>490.40433675041</ele>
        <time>2000-01-01T00:00:00Z</time>
      </trkpt>
      <trkpt lat="47.59456" lon="6.65853">
        <ele>491.16957465266</ele>
        <time>2000-01-01T00:00:00Z</time>
      </trkpt>
      <trkpt lat="47.59458" lon="6.65842">
        <ele>491.64</ele>
        <time>2000-01-01T00:00:00Z</time>
      </trkpt>
      <trkpt lat="47.59459" lon="6.65834">
        <ele>492.20373109128</ele>
        <time>2000-01-01T00:00:00Z</time>
      </trkpt>
      <trkpt lat="47.5946" lon="6.65807">
        <ele>494.01</ele>
        <time>2000-01-01T00:00:00Z</time>
      </trkpt>
      <trkpt lat="47.5946" lon="6.65788">
        <ele>494.5927323802</ele>
        <time>2000-01-01T00:00:00Z</time>
      </trkpt>
      <trkpt lat="47.59463" lon="6.65764">
        <ele>495.34317203041</ele>
        <time>2000-01-01T00:00:00Z</time>
      </trkpt>
      <trkpt lat="47.59463" lon="6.65744">
        <ele>495.95806435669</ele>
        <time>2000-01-01T00:00:00Z</time>
      </trkpt>
      <trkpt lat="47.59474" lon="6.65737">
        <ele>496.50378288545</ele>
        <time>2000-01-01T00:00:00Z</time>
      </trkpt>
      <trkpt lat="47.59472" lon="6.6573">
        <ele>496.74</ele>
        <time>2000-01-01T00:00:00Z</time>
      </trkpt>
      <trkpt lat="47.59469" lon="6.65721">
        <ele>496.86327452584</ele>
        <time>2000-01-01T00:00:00Z</time>
      </trkpt>
      <trkpt lat="47.59467" lon="6.65696">
        <ele>497.18</ele>
        <time>2000-01-01T00:00:00Z</time>
      </trkpt>
      <trkpt lat="47.59466" lon="6.65677">
        <ele>496.90685554441</ele>
        <time>2000-01-01T00:00:00Z</time>
      </trkpt>
      <trkpt lat="47.59466" lon="6.6566">
        <ele>496.66</ele>
        <time>2000-01-01T00:00:00Z</time>
      </trkpt>
      <trkpt lat="47.59467" lon="6.65618">
        <ele>496.54922159584</ele>
        <time>2000-01-01T00:00:00Z</time>
      </trkpt>
      <trkpt lat="47.59464" lon="6.65608">
        <ele>496.52</ele>
        <time>2000-01-01T00:00:00Z</time>
      </trkpt>
      <trkpt lat="47.59463" lon="6.65604">
        <ele>496.47170422764</ele>
        <time>2000-01-01T00:00:00Z</time>
      </trkpt>
      <trkpt lat="47.59443" lon="6.65595">
        <ele>496.1</ele>
        <time>2000-01-01T00:00:00Z</time>
      </trkpt>
      <trkpt lat="47.59431" lon="6.6559">
        <ele>495.57686837784</ele>
        <time>2000-01-01T00:00:00Z</time>
      </trkpt>
      <trkpt lat="47.5942" lon="6.65582">
        <ele>495.07</ele>
        <time>2000-01-01T00:00:00Z</time>
      </trkpt>
      <trkpt lat="47.59413" lon="6.65577">
        <ele>494.6712239406</ele>
        <time>2000-01-01T00:00:00Z</time>
      </trkpt>
      <trkpt lat="47.59402" lon="6.65561">
        <ele>493.91</ele>
        <time>2000-01-01T00:00:00Z</time>
      </trkpt>
      <trkpt lat="47.59376" lon="6.65523">
        <ele>492.25</ele>
        <time>2000-01-01T00:00:00Z</time>
      </trkpt>
      <trkpt lat="47.59369" lon="6.65513">
        <ele>491.24512672565</ele>
        <time>2000-01-01T00:00:00Z</time>
      </trkpt>
      <trkpt lat="47.59362" lon="6.65495">
        <ele>489.84</ele>
        <time>2000-01-01T00:00:00Z</time>
      </trkpt>
      <trkpt lat="47.59351" lon="6.65464">
        <ele>487.71</ele>
        <time>2000-01-01T00:00:00Z</time>
      </trkpt>
      <trkpt lat="47.59348" lon="6.65456">
        <ele>487.32676877095</ele>
        <time>2000-01-01T00:00:00Z</time>
      </trkpt>
      <trkpt lat="47.59344" lon="6.6543">
        <ele>486.15</ele>
        <time>2000-01-01T00:00:00Z</time>
      </trkpt>
      <trkpt lat="47.59337" lon="6.65387">
        <ele>485.04056682791</ele>
        <time>2000-01-01T00:00:00Z</time>
      </trkpt>
      <trkpt lat="47.59333" lon="6.6538">
        <ele>484.81</ele>
        <time>2000-01-01T00:00:00Z</time>
      </trkpt>
      <trkpt lat="47.59318" lon="6.65353">
        <ele>483.94</ele>
        <time>2000-01-01T00:00:00Z</time>
      </trkpt>
      <trkpt lat="47.59315" lon="6.65348">
        <ele>483.75094171812</ele>
        <time>2000-01-01T00:00:00Z</time>
      </trkpt>
      <trkpt lat="47.59304" lon="6.65323">
        <ele>482.85</ele>
        <time>2000-01-01T00:00:00Z</time>
      </trkpt>
      <trkpt lat="47.59299" lon="6.65311">
        <ele>481.98698408158</ele>
        <time>2000-01-01T00:00:00Z</time>
      </trkpt>
      <trkpt lat="47.59294" lon="6.65292">
        <ele>480.75</ele>
        <time>2000-01-01T00:00:00Z</time>
      </trkpt>
      <trkpt lat="47.59286" lon="6.65264">
        <ele>479.51057928879</ele>
        <time>2000-01-01T00:00:00Z</time>
      </trkpt>
      <trkpt lat="47.59278" lon="6.65244">
        <ele>478.54</ele>
        <time>2000-01-01T00:00:00Z</time>
      </trkpt>
      <trkpt lat="47.59272" lon="6.65228">
        <ele>477.609473695</ele>
        <time>2000-01-01T00:00:00Z</time>
      </trkpt>
      <trkpt lat="47.59269" lon="6.65211">
        <ele>476.72</ele>
        <time>2000-01-01T00:00:00Z</time>
      </trkpt>
      <trkpt lat="47.59265" lon="6.65187">
        <ele>475.82837110524</ele>
        <time>2000-01-01T00:00:00Z</time>
      </trkpt>
      <trkpt lat="47.59264" lon="6.65177">
        <ele>475.45</ele>
        <time>2000-01-01T00:00:00Z</time>
      </trkpt>
      <trkpt lat="47.59261" lon="6.65141">
        <ele>474.09</ele>
        <time>2000-01-01T00:00:00Z</time>
      </trkpt>
      <trkpt lat="47.5926" lon="6.65135">
        <ele>473.89456128873</ele>
        <time>2000-01-01T00:00:00Z</time>
      </trkpt>
      <trkpt lat="47.59262" lon="6.65088">
        <ele>472.47</ele>
        <time>2000-01-01T00:00:00Z</time>
      </trkpt>
      <trkpt lat="47.59263" lon="6.65055">
        <ele>471.15836680208</ele>
        <time>2000-01-01T00:00:00Z</time>
      </trkpt>
      <trkpt lat="47.59263" lon="6.65053">
        <ele>471.07</ele>
        <time>2000-01-01T00:00:00Z</time>
      </trkpt>
      <trkpt lat="47.59259" lon="6.65023">
        <ele>469.46597925006</ele>
        <time>2000-01-01T00:00:00Z</time>
      </trkpt>
      <trkpt lat="47.59257" lon="6.65019">
        <ele>469.19</ele>
        <time>2000-01-01T00:00:00Z</time>
      </trkpt>
      <trkpt lat="47.59245" lon="6.64996">
        <ele>466.56684141892</ele>
        <time>2000-01-01T00:00:00Z</time>
      </trkpt>
      <trkpt lat="47.59241" lon="6.64992">
        <ele>465.96</ele>
        <time>2000-01-01T00:00:00Z</time>
      </trkpt>
      <trkpt lat="47.59218" lon="6.64965">
        <ele>463.55873033411</ele>
        <time>2000-01-01T00:00:00Z</time>
      </trkpt>
      <trkpt lat="47.59213" lon="6.64959">
        <ele>463.05</ele>
        <time>2000-01-01T00:00:00Z</time>
      </trkpt>
      <trkpt lat="47.59195" lon="6.64935">
        <ele>460.88</ele>
        <time>2000-01-01T00:00:00Z</time>
      </trkpt>
      <trkpt lat="47.59184" lon="6.6492">
        <ele>459.43897937575</ele>
        <time>2000-01-01T00:00:00Z</time>
      </trkpt>
      <trkpt lat="47.59177" lon="6.64913">
        <ele>458.63</ele>
        <time>2000-01-01T00:00:00Z</time>
      </trkpt>
      <trkpt lat="47.59147" lon="6.64884">
        <ele>456.98</ele>
        <time>2000-01-01T00:00:00Z</time>
      </trkpt>
      <trkpt lat="47.59135" lon="6.64873">
        <ele>456.7088709272</ele>
        <time>2000-01-01T00:00:00Z</time>
      </trkpt>
      <trkpt lat="47.59113" lon="6.64843">
        <ele>456.1223865797</ele>
        <time>2000-01-01T00:00:00Z</time>
      </trkpt>
      <trkpt lat="47.59111" lon="6.64837">
        <ele>456.04</ele>
        <time>2000-01-01T00:00:00Z</time>
      </trkpt>
      <trkpt lat="47.59102" lon="6.64808">
        <ele>455.94880669626</ele>
        <time>2000-01-01T00:00:00Z</time>
      </trkpt>
      <trkpt lat="47.59101" lon="6.64805">
        <ele>455.94</ele>
        <time>2000-01-01T00:00:00Z</time>
      </trkpt>
      <trkpt lat="47.59083" lon="6.64759">
        <ele>456.65</ele>
        <time>2000-01-01T00:00:00Z</time>
      </trkpt>
      <trkpt lat="47.59073" lon="6.64734">
        <ele>457.18412716465</ele>
        <time>2000-01-01T00:00:00Z</time>
      </trkpt>
      <trkpt lat="47.59071" lon="6.64728">
        <ele>457.3</ele>
        <time>2000-01-01T00:00:00Z</time>
      </trkpt>
      <trkpt lat="47.59062" lon="6.64695">
        <ele>458.18</ele>
        <time>2000-01-01T00:00:00Z</time>
      </trkpt>
      <trkpt lat="47.59053" lon="6.64663">
        <ele>459.79</ele>
        <time>2000-01-01T00:00:00Z</time>
      </trkpt>
      <trkpt lat="47.59048" lon="6.64645">
        <ele>460.39427510039</ele>
        <time>2000-01-01T00:00:00Z</time>
      </trkpt>
      <trkpt lat="47.59037" lon="6.64615">
        <ele>461.48</ele>
        <time>2000-01-01T00:00:00Z</time>
      </trkpt>
      <trkpt lat="47.59026" lon="6.64583">
        <ele>463.25</ele>
        <time>2000-01-01T00:00:00Z</time>
      </trkpt>
      <trkpt lat="47.59015" lon="6.64552">
        <ele>465.32</ele>
        <time>2000-01-01T00:00:00Z</time>
      </trkpt>
      <trkpt lat="47.59004" lon="6.64521">
        <ele>467.16</ele>
        <time>2000-01-01T00:00:00Z</time>
      </trkpt>
      <trkpt lat="47.59" lon="6.64511">
        <ele>467.41914673817</ele>
        <time>2000-01-01T00:00:00Z</time>
      </trkpt>
      <trkpt lat="47.58986" lon="6.64474">
        <ele>468.42</ele>
        <time>2000-01-01T00:00:00Z</time>
      </trkpt>
      <trkpt lat="47.58976" lon="6.64447">
        <ele>469.11630673102</ele>
        <time>2000-01-01T00:00:00Z</time>
      </trkpt>
      <trkpt lat="47.58974" lon="6.64443">
        <ele>469.22</ele>
        <time>2000-01-01T00:00:00Z</time>
      </trkpt>
      <trkpt lat="47.58961" lon="6.64413">
        <ele>469.78</ele>
        <time>2000-01-01T00:00:00Z</time>
      </trkpt>
      <trkpt lat="47.58949" lon="6.64383">
        <ele>470.53</ele>
        <time>2000-01-01T00:00:00Z</time>
      </trkpt>
      <trkpt lat="47.58941" lon="6.64366">
        <ele>471.04728491292</ele>
        <time>2000-01-01T00:00:00Z</time>
      </trkpt>
      <trkpt lat="47.5893" lon="6.64338">
        <ele>471.87</ele>
        <time>2000-01-01T00:00:00Z</time>
      </trkpt>
      <trkpt lat="47.58918" lon="6.64307">
        <ele>473.3</ele>
        <time>2000-01-01T00:00:00Z</time>
      </trkpt>
      <trkpt lat="47.58916" lon="6.64301">
        <ele>473.48968336595</ele>
        <time>2000-01-01T00:00:00Z</time>
      </trkpt>
      <trkpt lat="47.58904" lon="6.64279">
        <ele>474.32</ele>
        <time>2000-01-01T00:00:00Z</time>
      </trkpt>
      <trkpt lat="47.58893" lon="6.6426">
        <ele>474.35025285009</ele>
        <time>2000-01-01T00:00:00Z</time>
      </trkpt>
      <trkpt lat="47.58868" lon="6.64207">
        <ele>474.43</ele>
        <time>2000-01-01T00:00:00Z</time>
      </trkpt>
      <trkpt lat="47.58855" lon="6.64178">
        <ele>473.83</ele>
        <time>2000-01-01T00:00:00Z</time>
      </trkpt>
      <trkpt lat="47.58846" lon="6.64159">
        <ele>473.43151075133</ele>
        <time>2000-01-01T00:00:00Z</time>
      </trkpt>
      <trkpt lat="47.58841" lon="6.64149">
        <ele>473.21</ele>
        <time>2000-01-01T00:00:00Z</time>
      </trkpt>
      <trkpt lat="47.58827" lon="6.6412">
        <ele>472.6</ele>
        <time>2000-01-01T00:00:00Z</time>
      </trkpt>
      <trkpt lat="47.58775" lon="6.63984">
        <ele>466.2</ele>
      </trkpt>
      <trkpt lat="47.58775" lon="6.63984">
        <ele>466.2</ele>
      </trkpt>
      <trkpt lat="47.58727" lon="6.638">
        <ele>456.5</ele>
      </trkpt>
      <trkpt lat="47.58727" lon="6.638">
        <ele>456.5</ele>
      </trkpt>
      <trkpt lat="47.58667" lon="6.63704">
        <ele>454.4</ele>
      </trkpt>
      <trkpt lat="47.58667" lon="6.63704">
        <ele>454.4</ele>
      </trkpt>
      <trkpt lat="47.58586" lon="6.63704">
        <ele>453.6</ele>
      </trkpt>
      <trkpt lat="47.58586" lon="6.63704">
        <ele>453.6</ele>
      </trkpt>
      <trkpt lat="47.585" lon="6.63576">
        <ele>461.1</ele>
      </trkpt>
      <trkpt lat="47.585" lon="6.63576">
        <ele>461.1</ele>
      </trkpt>
      <trkpt lat="47.58402" lon="6.6356">
        <ele>460.4</ele>
      </trkpt>
      <trkpt lat="47.58402" lon="6.6356">
        <ele>460.4</ele>
      </trkpt>
      <trkpt lat="47.58365" lon="6.6344">
        <ele>452.9</ele>
      </trkpt>
      <trkpt lat="47.58365" lon="6.6344">
        <ele>452.9</ele>
      </trkpt>
      <trkpt lat="47.5844" lon="6.6332">
        <ele>448.8</ele>
      </trkpt>
      <trkpt lat="47.5844" lon="6.6332">
        <ele>448.8</ele>
      </trkpt>
      <trkpt lat="47.58435" lon="6.63167">
        <ele>439.6</ele>
      </trkpt>
      <trkpt lat="47.58435" lon="6.63167">
        <ele>439.6</ele>
      </trkpt>
      <trkpt lat="47.58521" lon="6.63095">
        <ele>439.3</ele>
      </trkpt>
      <trkpt lat="47.58521" lon="6.63095">
        <ele>439.3</ele>
      </trkpt>
      <trkpt lat="47.5857" lon="6.63079">
        <ele>433.4</ele>
      </trkpt>
      <trkpt lat="47.5857" lon="6.63079">
        <ele>433.4</ele>
      </trkpt>
      <trkpt lat="47.58629" lon="6.62919">
        <ele>431.4</ele>
      </trkpt>
      <trkpt lat="47.58629" lon="6.62919">
        <ele>431.4</ele>
      </trkpt>
      <trkpt lat="47.58743" lon="6.62775">
        <ele>419.6</ele>
      </trkpt>
      <trkpt lat="47.58743" lon="6.62775">
        <ele>419.6</ele>
      </trkpt>
      <trkpt lat="47.58905" lon="6.62391">
        <ele>438.4</ele>
      </trkpt>
      <trkpt lat="47.58905" lon="6.62391">
        <ele>438.4</ele>
      </trkpt>
    </trkseg>
  </trk>
</gpx>